{"data":{"norad_id":64370,"epoch":"2026-09-20T12:30:13.122144Z","epoch_age_seconds":132566,"freshness":"FRESH","line1":"1 64370U 25127A   26263.52098521  .00190945  00000+0  14528-2 0  9997","line2":"2 64370  42.9998 350.2166 0002681 260.3734  99.6831 15.70918044 74149","mean_motion":15.70918044,"eccentricity":0.0002681,"inclination_deg":42.9998,"raan_deg":350.2166,"arg_perigee_deg":260.3734,"mean_anomaly_deg":99.6831,"bstar":0.0014528,"rev_number":7414,"period_min":91.666144233302,"perigee_km":354.46651139076,"apogee_km":358.07750150002,"semimajor_km":6734.4090064454,"source":"CELESTRAK","updated_at":"2026-09-21T09:00:35.321532Z"}}